TimeMDT,TemperatureF,Dew PointF,Humidity,Sea Level PressureIn,VisibilityMPH,Wind Direction,Wind SpeedMPH,Gust SpeedMPH,PrecipitationIn,Events,Conditions,WindDirDegrees,DateUTC
12:53 AM,57.9,19.0,22,29.77,10.0,Calm,Calm,-,N/A,,Clear,0,2013-04-29 06:53:00
1:53 AM,55.9,19.9,25,29.77,10.0,SW,3.5,-,N/A,,Clear,220,2013-04-29 07:53:00
2:53 AM,50.0,18.0,28,29.77,10.0,Calm,Calm,-,N/A,,Clear,0,2013-04-29 08:53:00
3:53 AM,48.9,17.1,28,29.77,10.0,Calm,Calm,-,N/A,,Clear,0,2013-04-29 09:53:00
4:53 AM,54.0,19.9,26,29.76,10.0,Calm,Calm,-,N/A,,Clear,0,2013-04-29 10:53:00
5:53 AM,48.0,19.0,32,29.78,10.0,Calm,Calm,-,N/A,,Clear,0,2013-04-29 11:53:00
6:53 AM,45.0,18.0,34,29.80,10.0,Calm,Calm,-,N/A,,Clear,0,2013-04-29 12:53:00
7:53 AM,53.1,21.9,30,29.80,10.0,Calm,Calm,-,N/A,,Clear,0,2013-04-29 13:53:00
8:53 AM,61.0,23.0,23,29.80,10.0,Calm,Calm,-,N/A,,Clear,0,2013-04-29 14:53:00
9:53 AM,69.1,24.1,18,29.77,10.0,SW,3.5,-,N/A,,Clear,230,2013-04-29 15:53:00
10:53 AM,73.9,24.1,16,29.76,10.0,WNW,8.1,-,N/A,,Clear,300,2013-04-29 16:53:00
11:53 AM,75.0,21.9,14,29.74,10.0,WSW,6.9,20.7,N/A,,Clear,240,2013-04-29 17:53:00
12:53 PM,77.0,19.0,11,29.73,10.0,WNW,8.1,24.2,N/A,,Clear,290,2013-04-29 18:53:00
1:53 PM,77.0,19.9,12,29.70,10.0,WNW,9.2,20.7,N/A,,Clear,290,2013-04-29 19:53:00
2:53 PM,79.0,19.0,11,29.66,10.0,WSW,5.8,-,N/A,,Clear,240,2013-04-29 20:53:00
3:53 PM,81.0,17.1,9,29.62,10.0,South,4.6,16.1,N/A,,Clear,180,2013-04-29 21:53:00
4:53 PM,80.1,16.0,9,29.57,10.0,WSW,4.6,-,N/A,,Clear,250,2013-04-29 22:53:00
5:53 PM,82.0,16.0,8,29.56,10.0,West,6.9,-,N/A,,Clear,270,2013-04-29 23:53:00
6:17 PM,82.4,17.6,9,29.68,10.0,WSW,13.8,21.9,N/A,,Clear,240,2013-04-30 00:17:00
6:53 PM,81.0,17.1,9,29.55,10.0,WSW,13.8,-,N/A,,Clear,250,2013-04-30 00:53:00
7:53 PM,75.0,17.1,11,29.54,10.0,West,5.8,-,N/A,,Clear,280,2013-04-30 01:53:00
8:53 PM,70.0,17.1,13,29.53,10.0,NW,9.2,-,N/A,,Clear,320,2013-04-30 02:53:00
9:53 PM,64.9,18.0,16,29.54,10.0,NW,8.1,-,N/A,,Clear,320,2013-04-30 03:53:00
10:53 PM,63.0,17.1,17,29.52,10.0,WSW,5.8,-,N/A,,Clear,250,2013-04-30 04:53:00
11:53 PM,63.0,19.0,18,29.52,10.0,Calm,Calm,-,N/A,,Clear,0,2013-04-30 05:53:00